Flag for Norway Weather past 2 weeks in Sarpsborg, Norway

Now
72 °F

Passing clouds.


Feels Like: 76 °F
Forecast: 63 / 78 °F
Wind: 21 mph from Southwest

Location: Rygge

Current Time: Aug 1, 2014 at 5:23:55 PM

Latest Report: Aug 1, 2014 at 4:50 PM


Visibility: N/A

Pressure: 29.86 "Hg

Humidity: 57%

Dew point: 55 °F

Location of SarpsborgLocation

Historic Weather in Sarpsborg — Graph

°F

Sarpsborg temperature yesterday

Maximum temperature yesterday: 73 °F (at 3:20 PM)
Minimum temperature yesterday: 59 °F (at 4:20 AM)
Average temperature yesterday: 67 °F

Past Weeks' High & Low Weather Summary

 TemperatureHumidityPressure
High91 °F (Jul 23, 5:20 PM)100% (Jul 18, 2:50 AM)30.30 "Hg (Jul 18, 2:50 AM)
Low54 °F (Jul 19, 4:50 AM)26% (Jul 23, 5:50 PM)29.62 "Hg (Jul 30, 5:20 PM)
Average72 °F64%30.01 "Hg
* Reported Jul 17 3:20 PM — Aug 1 3:50 PM, Sarpsborg, Weather by CustomWeather, © 2014

Note: Actual official high and low records may vary slightly from our data, if they occured in-between our weather recording intervals... More about our weather records

Advertising

Sarpsborg weather history for previous 24 hours

 ConditionsComfort  
Time TempWeatherWind HumidityBarometerVisibility
3:50 PM
Aug 1
70 °FPassing clouds.22 mph60%29.83 "HgN/A
3:20 PM72 °FPassing clouds.21 mph57%29.83 "HgN/A
2:50 PM72 °FPassing clouds.20 mph57%29.83 "HgN/A
2:20 PM70 °FPassing clouds.20 mph60%29.83 "HgN/A
1:50 PM70 °FPassing clouds.20 mph57%29.83 "HgN/A
1:20 PM70 °FScattered clouds.20 mph57%29.83 "HgN/A
12:50 PM70 °FScattered clouds.20 mph60%29.80 "HgN/A
12:20 PM70 °FPassing clouds.16 mph60%29.80 "HgN/A
11:50 AM70 °FPassing clouds.15 mph60%29.80 "HgN/A
11:20 AM68 °FPassing clouds.18 mph60%29.80 "HgN/A
10:50 AM68 °FPassing clouds.16 mph60%29.80 "HgN/A
10:20 AM68 °FPassing clouds.14 mph56%29.77 "HgN/A
9:50 AM68 °FPassing clouds.16 mph56%29.77 "HgN/A
9:20 AM66 °FPassing clouds.13 mph64%29.77 "HgN/A
8:50 AM66 °FSunny.14 mph64%29.77 "Hg10 mi
8:20 AM64 °FPassing clouds.12 mph68%29.74 "HgN/A
7:50 AM64 °FSunny.10 mph68%29.74 "Hg10 mi
7:20 AM64 °FPassing clouds.9 mph68%29.74 "HgN/A
6:50 AM63 °FSunny.10 mph73%29.74 "Hg10 mi
6:20 AM63 °FSunny.9 mph73%29.74 "Hg10 mi
5:50 AM63 °FPassing clouds.8 mph73%29.74 "HgN/A
5:20 AM63 °FMild.9 mph68%29.74 "HgN/A
4:50 AM61 °FCool.8 mph72%29.74 "HgN/A
4:20 AM63 °FMild.7 mph77%29.74 "HgN/A
3:50 AM63 °FPassing clouds.9 mph77%29.74 "HgN/A
3:20 AM63 °FPassing clouds.7 mph73%29.74 "HgN/A
2:50 AM61 °FPassing clouds.5 mph77%29.74 "HgN/A
2:20 AM63 °FPassing clouds.7 mph73%29.74 "HgN/A
1:50 AM64 °FPassing clouds.8 mph68%29.74 "HgN/A
1:20 AM63 °FPassing clouds.7 mph73%29.74 "HgN/A
12:50 AM63 °FPassing clouds.7 mph73%29.74 "HgN/A
12:20 AM63 °FPassing clouds.7 mph77%29.71 "HgN/A
11:50 PM
Jul 31
64 °FMild.8 mph68%29.71 "HgN/A
11:20 PM64 °FMild.9 mph68%29.71 "HgN/A
10:50 PM64 °FClear.8 mph73%29.71 "Hg10 mi
10:20 PM66 °FSunny.10 mph68%29.71 "Hg10 mi
9:50 PM66 °FSunny.10 mph68%29.71 "Hg10 mi
9:20 PM68 °FSunny.9 mph64%29.68 "Hg10 mi
8:50 PM70 °FSunny.12 mph60%29.68 "Hg10 mi
8:20 PM72 °FPassing clouds.12 mph57%29.68 "HgN/A
7:50 PM72 °FPassing clouds.10 mph57%29.68 "HgN/A
7:20 PM72 °FPassing clouds.13 mph53%29.68 "HgN/A
6:50 PM72 °FSunny.14 mph57%29.68 "Hg10 mi
6:20 PM73 °FSunny.16 mph57%29.68 "Hg10 mi
5:50 PM72 °FSunny.18 mph57%29.68 "Hg10 mi
5:20 PM73 °FSunny.18 mph53%29.68 "Hg10 mi
Weather by CustomWeather, © 2014

See weather overviewHow to use our weather pages